Location: Fuglau
(48.6333°N, 15.5500°E)
Time: 04:42:08
(UTC+00:00)

STARLINK-1029 - Pass Details

Date: 27 February 2020
Orbit: 382 x 390 km, 53.0° (Epoch: 29 March)

Event Time Altitude Azimuth Distance (km) Brightness Sun altitude
Rises 17:55:56 0° 278° (W) 2,276 8.8 -13.7°
Reaches altitude 10° 17:58:05 10° 287° (WNW) 1,423 7.0 -14.1°
Maximum altitude 18:01:04 36° 356° (N) 643 4.0 -14.6°
Enters shadow 18:02:28 23° 46° (NE) 879 4.3 -14.8°
